Temperature
7 8 8 8 7 7 6 6 6 7 8 9 9 8 9 9 9 8 8 7 7 7 6 6 6 6 6 6 6 5 5 5 5 5 4 4 4 4 4 4 4 4 4 4
6 8 8 7 7 7 7 7 7 7 7 8 9 9 9 9 8 8 7 7 6 6 6 6 6 6 6 5 5 5 5 5 5 4 4 4 4 4 4 4 4 4 4 4
5 7 7 6 7 7 7 7 7 6 7 8 8 8 8 8 7 7 7 7 6 6 6 6 5 5 5 5 5 5 5 4 4 4 4 4 4 3 3 3 3 3 3 3
5 6 5 7 9 8 7 7 7 7 7 8 8 8 7 7 7 6 6 6 6 5 5 5 5 5 5 5 4 4 4 4 4 4 3 3 3 3 3 3 3 3 3 2
4 5 6 8 8 7 7 6 7 7 7 7 7 7 6 6 6 6 5 5 5 5 5 5 5 4 4 4 4 4 4 4 3 3 3 3 3 3 2 2 2 2 2 2
4 4 5 7 7 7 7 5 6 7 6 6 6 4 5 6 5 5 5 5 4 4 4 4 4 4 4 4 4 4 3 3 3 3 3 2 2 2 2 2 2 2 2 1
3 4 5 6 6 6 5 5 6 6 6 6 5 5 5 5 5 4 4 4 4 4 3 3 3 3 3 3 3 3 3 2 2 2 2 2 2 2 1 1 1 1 1 1
3 3 4 5 5 5 5 6 6 5 5 5 5 5 4 4 4 4 3 3 3 3 3 3 2 2 3 2 2 2 2 2 2 2 2 1 1 1 1 1 1 1 1 1
4 4 6 6 5 5 5 5 5 5 4 4 4 4 4 4 3 3 3 3 3 2 2 2 2 2 2 2 2 2 2 2 2 1 1 1 1 1 1 0 0 0 0 0
4 5 6 6 5 5 5 4 4 4 4 4 3 3 3 3 3 2 2 2 2 2 2 2 2 2 1 2 1 1 1 1 1 1 1 1 0 0 0 0 -0 -0 -0 -0
3 4 5 5 5 4 4 4 3 3 3 3 3 2 2 2 2 2 2 1 1 1 1 1 1 1 1 1 1 1 1 1 1 0 0 0 0 -0 -0 -0 -1 -1 -1 -1
3 4 4 4 4 4 3 3 3 3 2 2 2 2 2 1 1 1 1 1 1 1 1 1 1 1 1 1 1 0 0 0 0 0 -0 -0 -0 -1 -1 -1 -1 -1 -1 -1
4 4 4 3 3 3 3 3 2 2 2 2 2 1 1 1 1 1 0 0 0 0 0 0 1 0 0 0 0 0 0 -0 -0 -0 -1 -1 -1 -1 -1 -1 -1 -1 -2 -2
3 3 3 3 2 2 2 2 2 1 1 1 1 1 1 0 0 0 0 0 0 0 0 0 0 0 0 -0 -0 -0 -0 -1 -1 -1 -1 -1 -1 -1 -2 -2 -2 -2 -2 -2
2 2 2 2 2 1 1 1 1 1 1 1 0 0 0 0 -0 -0 -0 -0 -0 -0 -0 -0 -0 -0 -0 -1 -1 -1 -1 -1 -1 -1 -2 -2 -2 -2 -2 -2 -2 -2 -2 -2
1 1 1 1 1 1 0 0 0 0 0 0 0 -0 -0 -0 -0 -0 -0 -0 -1 -1 -1 -1 -1 -1 -1 -1 -1 -1 -1 -1 -2 -2 -2 -2 -2 -2 -3 -3 -3 -3 -3 -3
0 0 -0 -0 -0 -0 -0 -0 -0 -0 -0 -0 -0 -1 -1 -1 -1 -1 -1 -1 -1 -1 -1 -1 -1 -1 -1 -1 -2 -2 -2 -2 -2 -2 -2 -3 -3 -3 -3 -3 -3 -3 -3 -3
-0 -0 -0 -1 -1 -1 -1 -1 -1 -1 -1 -1 -1 -1 -1 -1 -1 -1 -1 -1 -1 -1 -1 -1 -2 -2 -2 -2 -2 -2 -2 -2 -3 -3 -3 -3 -3 -3 -3 -3 -3 -3 -3 -3
-1 -1 -1 -1 -1 -1 -1 -1 -1 -1 -1 -1 -1 -1 -1 -1 -2 -2 -2 -2 -2 -2 -2 -2 -2 -2 -2 -2 -2 -3 -3 -3 -3 -3 -3 -3 -3 -3 -3 -3 -3 -4 -4 -4
-1 -1 -1 -1 -1 -1 -1 -1 -1 -1 -1 -1 -2 -2 -2 -2 -2 -2 -2 -2 -2 -2 -2 -2 -3 -3 -3 -3 -3 -3 -3 -3 -3 -3 -3 -3 -3 -3 -3 -4 -4 -4 -4 -4
-1 -1 -1 -1 -2 -2 -2 -2 -2 -2 -2 -2 -2 -2 -2 -2 -2 -2 -3 -3 -2 -3 -3 -3 -3 -3 -3 -3 -3 -3 -3 -3 -3 -3 -3 -3 -3 -3 -4 -4 -4 -4 -4 -4
-2 -2 -2 -2 -2 -2 -2 -2 -2 -2 -2 -2 -2 -2 -2 -2 -3 -3 -3 -3 -3 -3 -3 -3 -3 -3 -3 -4 -4 -3 -3 -4 -4 -4 -4 -4 -4 -4 -4 -4 -4 -4 -4 -4
-2 -2 -2 -2 -2 -2 -2 -2 -2 -2 -2 -2 -2 -3 -3 -3 -3 -3 -3 -3 -3 -4 -4 -4 -4 -4 -4 -4 -4 -4 -4 -4 -4 -4 -4 -4 -4 -4 -4 -4 -4 -4 -4 -5
-3 -3 -3 -3 -3 -3 -3 -2 -2 -2 -3 -3 -3 -3 -3 -4 -4 -4 -4 -4 -4 -4 -4 -4 -4 -4 -4 -4 -4 -4 -4 -4 -4 -4 -4 -4 -4 -4 -4 -4 -4 -4 -5 -5
-3 -3 -3 -3 -3 -3 -3 -3 -3 -3 -3 -3 -3 -3 -4 -4 -4 -4 -4 -4 -4 -4 -4 -4 -4 -4 -5 -4 -4 -4 -4 -5 -5 -5 -5 -5 -5 -5 -5 -5 -5 -5 -5 -5
-4 -4 -4 -4 -4 -4 -4 -4 -4 -4 -4 -4 -4 -4 -4 -4 -4 -4 -4 -4 -4 -5 -5 -4 -5 -5 -5 -5 -5 -5 -5 -5 -5 -5 -5 -5 -5 -5 -5 -5 -5 -5 -5 -5
-4 -4 -4 -4 -4 -4 -4 -4 -4 -4 -4 -4 -4 -4 -4 -4 -5 -5 -5 -5 -5 -5 -5 -5 -5 -5 -5 -5 -5 -5 -5 -5 -5 -5 -5 -5 -5 -5 -5 -5 -5 -5 -5 -5
Wind_Speed
11 11 9 9 9 9 11 10 9 8 8 7 4 3 2 1 2 2 2 2 2 2 2 2 2 3 3 3 3 3 3 3 3 3 2 3 3 3 3 3 3 3 3 3
9 10 10 12 12 12 13 12 13 13 12 7 5 4 3 2 2 3 3 2 2 2 2 3 3 3 3 3 3 3 3 4 3 3 3 3 3 3 3 3 3 3 4 4
5 6 7 10 10 12 9 8 8 11 10 5 4 4 3 3 3 3 2 2 2 3 3 3 3 3 3 3 3 3 3 3 3 3 3 3 3 3 4 4 3 4 4 4
5 4 8 6 1 4 7 8 8 7 6 4 3 3 2 1 2 3 3 3 2 2 2 2 2 2 2 3 3 4 4 4 4 4 4 3 3 4 4 4 4 4 4 5
4 6 9 5 2 2 4 5 4 5 4 3 3 3 2 1 1 2 3 3 2 2 3 2 2 2 2 2 3 4 4 4 4 4 4 4 4 5 4 4 4 4 4 5
5 5 6 2 2 2 1 4 1 1 2 2 2 3 3 2 3 4 3 3 3 2 3 3 3 2 2 3 4 5 5 4 4 4 4 5 5 5 4 4 4 4 4 4
9 8 7 1 2 3 2 3 2 1 2 2 2 3 3 3 4 4 4 4 3 3 3 3 3 2 3 4 5 4 3 3 3 4 4 5 4 4 4 4 4 4 5 5
6 7 7 1 2 2 2 2 3 3 2 3 4 4 4 4 4 4 4 4 3 2 3 3 3 3 4 5 4 3 3 3 4 4 4 4 4 4 4 4 4 4 4 4
7 6 3 2 2 1 2 3 3 3 3 4 5 5 5 5 5 5 4 4 3 3 4 4 3 3 5 5 3 3 3 4 4 4 4 4 4 4 4 4 3 4 3 4
6 6 4 3 3 2 2 3 3 3 4 5 6 7 7 6 6 5 4 4 3 4 4 4 4 4 4 4 3 3 4 4 4 4 4 4 4 4 4 4 4 4 4 5
8 7 6 4 3 3 3 4 5 5 5 5 6 7 7 6 6 5 5 4 4 4 5 5 5 4 4 3 3 3 4 4 4 4 5 4 4 4 4 5 5 5 5 5
8 5 4 5 3 3 4 5 5 5 6 5 6 7 7 6 6 5 5 5 4 5 5 5 5 5 4 4 4 5 5 5 4 4 4 4 4 4 6 6 8 9 9 8
8 6 4 5 4 3 4 4 4 5 5 6 6 6 6 6 5 5 5 5 5 6 5 5 5 5 5 4 4 5 5 5 4 4 4 4 4 4 5 5 7 8 10 10
5 4 5 4 4 3 3 4 4 5 5 5 5 5 5 5 6 6 6 6 6 5 5 5 6 6 5 4 4 5 5 6 5 4 4 4 4 4 4 4 5 5 7 10
3 3 4 4 3 3 3 3 4 5 5 5 5 5 5 6 6 7 6 5 5 5 6 5 6 6 5 4 5 5 5 4 4 4 4 4 4 4 4 5 5 5 5 6
3 3 3 3 4 4 4 4 5 6 6 6 5 5 5 6 6 6 6 5 5 6 6 6 7 6 5 4 5 5 4 6 6 4 4 4 4 4 4 5 5 5 5 5
2 3 3 4 4 5 5 5 5 6 6 6 6 6 5 5 6 6 6 5 5 6 6 6 7 6 5 5 5 4 4 5 7 5 4 4 4 5 5 5 5 6 6 6
3 3 3 4 4 5 6 6 5 6 6 6 6 5 5 6 7 7 6 5 5 6 6 6 5 5 5 4 4 4 4 4 4 4 4 4 5 5 5 5 6 6 5 6
3 3 4 4 5 5 5 6 6 6 6 5 5 6 6 6 6 6 6 5 6 7 7 5 6 5 5 5 4 3 4 4 4 4 4 6 6 5 5 5 5 6 5 5
3 4 5 6 6 5 6 6 6 6 6 5 5 6 6 6 6 5 5 6 6 5 6 5 5 4 4 4 4 3 4 5 5 5 5 5 5 5 5 5 5 5 5 5
4 5 6 6 6 6 6 6 6 6 6 5 6 7 7 7 6 5 5 6 6 5 5 6 4 4 4 4 5 4 4 4 5 5 5 5 5 5 5 5 5 5 5 5
5 5 6 6 6 6 6 5 5 6 6 6 6 6 6 7 6 6 6 6 6 7 5 4 4 5 6 6 4 4 4 5 5 5 5 5 5 5 5 5 5 5 4 4
5 5 6 6 6 6 6 6 6 6 6 7 7 7 7 7 5 5 7 5 4 6 5 4 6 8 8 5 4 4 4 5 5 5 5 5 5 5 5 5 4 4 4 4
5 5 6 5 5 5 7 7 6 6 6 7 7 7 6 6 6 5 5 7 7 8 5 6 9 9 8 4 4 4 4 5 5 4 4 4 4 4 4 4 4 4 4 4
6 6 6 6 6 6 6 6 6 6 6 5 6 6 5 5 6 6 5 5 8 8 6 7 10 10 6 4 4 5 5 5 5 4 4 4 4 4 4 3 4 4 4 4
6 6 6 6 6 5 5 5 5 5 5 5 5 5 4 4 4 5 5 5 6 8 7 5 6 6 4 4 5 5 5 5 5 5 4 4 4 4 4 3 4 4 4 4
6 5 5 5 5 5 5 5 5 6 5 5 7 6 5 4 4 5 5 5 5 5 5 5 5 5 5 5 5 5 5 4 4 4 4 4 3 4 4 4 4 4 4 4
Wind_Direction
266 274 273 262 253 236 231 231 238 255 263 280 296 295 283 232 195 192 202 207 212 215 226 218 202 195 188 189 190 191 197 218 233 236 235 234 237 242 242 240 239 231 238 243
271 259 258 262 253 244 240 241 247 264 271 278 296 309 306 294 252 246 228 216 228 239 238 233 220 208 199 201 204 198 206 225 233 233 237 239 239 241 244 243 241 236 237 237
268 271 283 263 240 230 230 225 225 246 260 281 288 291 291 297 291 267 260 257 247 255 245 240 227 208 215 213 208 205 218 228 232 231 233 239 242 242 244 243 242 242 243 240
278 295 251 243 152 200 219 235 227 241 268 287 288 292 292 304 309 310 306 298 285 281 278 270 258 234 220 212 215 215 220 229 230 230 234 238 240 242 246 242 240 242 244 243
252 261 271 262 220 183 221 259 237 244 272 303 333 328 302 337 345 315 313 315 307 296 288 275 261 249 230 230 227 224 225 228 227 228 234 238 242 248 249 246 249 248 248 242
232 243 250 269 66 49 40 272 302 245 277 312 350 304 283 334 339 327 317 314 308 302 293 272 267 245 235 240 237 234 230 231 228 231 237 241 244 249 250 247 249 252 256 248
234 244 259 276 124 109 195 260 4 4 325 310 274 265 290 330 324 313 309 304 298 293 283 272 264 247 245 246 244 243 241 235 230 230 237 243 246 246 247 248 250 252 257 257
215 231 247 159 125 189 253 359 0 347 330 309 295 299 304 299 294 294 295 296 290 286 284 280 264 246 250 250 249 246 246 244 240 238 242 245 240 246 243 238 247 254 259 265
212 228 265 176 198 259 334 320 326 323 320 308 299 294 295 298 298 293 289 294 294 277 279 276 262 243 250 255 245 238 241 246 248 247 246 241 237 242 246 236 237 248 253 262
272 268 272 263 275 295 311 304 307 301 300 299 294 294 296 296 296 295 289 286 280 267 264 269 263 248 248 253 239 232 241 251 249 246 250 247 242 240 240 236 235 240 248 257
261 270 286 268 267 297 312 305 298 298 297 292 289 287 285 287 286 285 283 277 269 261 260 266 268 263 257 246 233 237 244 250 250 243 242 245 244 241 242 239 233 237 243 246
252 256 265 281 296 301 297 291 289 291 293 293 285 281 283 282 280 281 282 281 276 267 263 266 266 265 262 247 233 234 244 247 243 240 241 240 246 264 259 251 256 251 250 253
263 277 275 280 289 295 282 287 294 288 284 290 291 282 281 281 281 278 279 277 270 267 265 265 265 260 256 245 239 237 239 243 242 240 238 239 242 249 270 279 269 266 263 264
268 279 279 279 286 296 300 303 303 297 292 290 289 289 286 284 283 279 275 271 270 268 266 264 264 262 257 246 241 245 245 246 243 239 239 236 239 243 249 261 276 277 269 267
263 265 269 290 303 309 313 310 303 297 299 299 297 291 288 284 280 280 279 277 278 275 273 269 268 268 262 249 244 245 245 245 243 242 241 240 241 243 247 253 261 271 276 276
276 275 269 278 283 293 301 297 291 290 293 292 294 292 289 286 283 282 280 276 274 275 274 271 269 269 263 254 250 249 246 243 244 246 246 246 245 246 252 254 259 262 266 269
239 256 268 279 284 287 287 285 283 284 287 287 288 290 293 293 292 288 285 279 271 271 271 269 272 274 263 252 247 249 247 245 244 248 244 245 247 249 253 256 260 263 265 265
239 247 252 259 272 283 289 289 285 284 280 278 284 286 284 282 282 284 287 289 289 287 278 271 273 276 265 255 251 250 244 244 241 240 244 246 251 249 250 254 258 264 272 274
252 256 264 268 271 273 276 280 282 281 280 280 281 279 277 276 277 281 284 284 284 286 287 282 277 276 271 264 258 247 243 246 249 246 246 251 257 252 251 254 258 261 264 269
266 266 266 268 270 269 272 276 280 282 280 278 278 281 285 285 282 282 283 278 272 271 278 284 286 280 274 268 261 248 244 248 251 251 250 248 251 253 253 255 258 260 261 262
277 276 273 271 272 272 268 269 273 276 280 275 269 271 276 280 280 278 281 286 287 283 280 279 282 280 274 272 268 254 249 252 253 251 251 251 252 253 254 256 258 259 259 261
272 273 274 271 271 277 275 268 263 266 273 275 272 271 274 279 282 282 269 267 279 287 290 281 278 277 280 282 272 262 258 256 255 253 252 252 251 253 254 255 257 259 260 258
271 269 272 270 268 274 281 278 267 263 264 265 266 266 267 271 273 275 284 281 277 285 290 278 280 284 288 290 280 271 265 263 260 254 252 251 250 251 254 256 257 258 259 258
273 273 271 271 272 276 281 282 277 270 264 266 264 259 259 271 279 268 264 280 288 289 286 282 286 290 294 291 280 276 272 267 263 260 258 256 254 252 252 254 257 257 256 258
269 269 271 271 272 270 270 275 279 275 271 270 269 267 261 255 264 276 276 275 283 290 288 287 290 292 290 283 279 277 273 267 264 260 254 254 254 253 251 250 252 255 256 258
266 265 264 260 258 263 265 267 270 272 274 279 282 277 273 269 266 272 276 274 273 282 284 283 283 284 279 274 271 271 271 272 272 266 255 253 253 254 256 252 250 252 254 255
268 266 268 272 269 259 256 258 264 271 272 274 283 284 279 276 276 277 279 280 281 281 280 280 277 273 271 271 271 270 269 268 265 262 258 253 251 252 253 253 254 254 254 255
Height
1496 1492 1492 1491 1492 1492 1494 1492 1493 1483 1479 1475 1474 1473 1473 1473 1473 1473 1474 1473 1473 1473 1473 1473 1473 1473 1473 1473 1473 1473 1473 1473 1472 1472 1472 1472 1471 1471 1470 1469 1469 1468 1467 1466
1494 1489 1488 1487 1486 1485 1485 1484 1482 1479 1476 1472 1471 1471 1471 1471 1471 1471 1471 1471 1471 1471 1470 1470 1470 1470 1470 1470 1470 1470 1469 1469 1469 1468 1468 1468 1467 1466 1466 1465 1465 1464 1463 1462
1495 1486 1484 1485 1475 1476 1476 1474 1476 1477 1473 1469 1469 1469 1469 1469 1469 1468 1468 1468 1468 1468 1467 1467 1467 1467 1467 1466 1466 1466 1466 1465 1465 1464 1464 1463 1463 1462 1462 1461 1460 1459 1458 1457
1496 1491 1491 1473 1465 1465 1468 1468 1468 1468 1467 1466 1466 1466 1467 1467 1467 1466 1466 1466 1465 1465 1464 1464 1464 1463 1463 1463 1462 1462 1461 1461 1461 1460 1460 1459 1459 1458 1458 1457 1455 1454 1453 1452
1496 1491 1478 1468 1465 1465 1467 1467 1464 1464 1464 1465 1465 1464 1464 1464 1464 1464 1464 1463 1462 1462 1461 1460 1460 1460 1459 1459 1458 1458 1457 1457 1457 1456 1456 1455 1454 1454 1453 1452 1451 1450 1449 1448
1493 1491 1483 1468 1466 1464 1466 1469 1464 1463 1463 1464 1464 1466 1464 1463 1462 1461 1461 1460 1459 1458 1457 1456 1456 1456 1455 1454 1454 1454 1453 1453 1452 1452 1451 1450 1450 1449 1448 1447 1446 1445 1444 1443
1491 1486 1475 1466 1465 1466 1473 1469 1464 1462 1463 1463 1464 1464 1462 1460 1459 1459 1457 1456 1455 1454 1453 1453 1452 1452 1451 1450 1450 1450 1449 1448 1448 1447 1447 1446 1445 1444 1443 1443 1442 1441 1439 1438
1485 1484 1477 1465 1465 1467 1466 1463 1462 1462 1462 1462 1461 1460 1459 1458 1457 1455 1454 1452 1451 1450 1449 1449 1448 1448 1447 1446 1446 1445 1445 1444 1443 1443 1442 1441 1440 1440 1439 1438 1437 1436 1435 1433
1473 1471 1464 1463 1463 1463 1462 1461 1461 1461 1460 1460 1459 1457 1456 1455 1453 1452 1450 1449 1447 1446 1445 1444 1444 1444 1443 1442 1442 1441 1440 1439 1439 1438 1437 1437 1436 1435 1434 1433 1432 1431 1430 1429
1466 1462 1461 1461 1460 1460 1460 1459 1459 1459 1458 1457 1455 1454 1452 1451 1450 1448 1446 1445 1443 1442 1441 1440 1440 1439 1439 1438 1437 1436 1435 1435 1434 1433 1432 1432 1431 1430 1429 1429 1428 1427 1426 1425
1463 1460 1458 1457 1458 1458 1457 1457 1456 1456 1454 1453 1452 1450 1448 1447 1445 1444 1442 1441 1440 1438 1437 1436 1436 1435 1434 1434 1433 1432 1431 1430 1429 1429 1428 1427 1426 1425 1425 1424 1424 1423 1421 1420
1458 1456 1456 1455 1455 1454 1454 1453 1453 1451 1450 1449 1448 1446 1444 1442 1441 1440 1438 1437 1435 1434 1433 1432 1431 1430 1430 1429 1428 1427 1426 1425 1424 1424 1423 1422 1421 1420 1419 1420 1419 1418 1417 1416
1452 1452 1452 1451 1451 1451 1450 1449 1449 1447 1446 1444 1443 1442 1440 1438 1436 1435 1434 1433 1431 1430 1428 1427 1426 1425 1425 1424 1423 1422 1421 1421 1420 1419 1418 1417 1416 1415 1414 1414 1413 1413 1412 1411
1448 1448 1447 1447 1447 1447 1446 1445 1444 1443 1442 1441 1439 1438 1436 1434 1432 1431 1430 1428 1427 1425 1424 1423 1421 1420 1419 1419 1418 1417 1416 1415 1415 1414 1413 1412 1411 1411 1410 1408 1407 1406 1406 1406
1444 1444 1444 1443 1443 1443 1442 1441 1440 1439 1438 1436 1435 1433 1432 1430 1428 1426 1425 1424 1422 1421 1419 1418 1416 1415 1414 1413 1413 1412 1411 1410 1410 1409 1408 1407 1406 1406 1405 1404 1403 1401 1401 1400
1440 1440 1440 1440 1439 1439 1438 1437 1436 1435 1434 1432 1431 1429 1428 1426 1424 1422 1421 1419 1418 1416 1414 1413 1411 1410 1409 1408 1407 1406 1405 1405 1404 1403 1403 1402 1401 1400 1400 1399 1398 1397 1396 1395
1436 1436 1436 1436 1435 1435 1434 1434 1433 1431 1430 1428 1427 1425 1423 1421 1420 1418 1416 1415 1413 1412 1410 1408 1406 1405 1404 1403 1402 1401 1400 1399 1399 1398 1397 1397 1396 1395 1395 1394 1393 1391 1391 1390
1433 1433 1433 1433 1432 1431 1430 1430 1429 1427 1426 1424 1423 1421 1419 1417 1415 1413 1412 1410 1408 1406 1405 1403 1402 1400 1399 1398 1397 1396 1395 1394 1393 1393 1392 1392 1391 1390 1390 1389 1388 1387 1386 1386
1429 1429 1429 1429 1428 1428 1427 1426 1425 1423 1422 1420 1418 1417 1415 1413 1411 1409 1407 1405 1403 1401 1399 1398 1397 1395 1394 1393 1392 1391 1390 1389 1388 1388 1387 1387 1386 1386 1385 1384 1383 1382 1381 1381
1427 1426 1426 1425 1425 1424 1423 1422 1420 1419 1418 1416 1414 1412 1410 1408 1407 1405 1403 1401 1399 1397 1395 1394 1392 1391 1389 1388 1387 1386 1385 1384 1384 1383 1383 1382 1381 1381 1380 1379 1378 1377 1377 1376
1423 1423 1422 1421 1420 1419 1419 1418 1416 1415 1413 1412 1410 1408 1406 1404 1402 1401 1398 1396 1394 1393 1391 1389 1388 1386 1385 1384 1382 1381 1380 1380 1379 1379 1378 1377 1377 1376 1375 1375 1374 1373 1372 1371
1420 1419 1418 1417 1416 1415 1414 1413 1412 1410 1409 1407 1405 1404 1402 1399 1398 1396 1394 1393 1390 1389 1387 1385 1384 1382 1381 1379 1378 1377 1376 1375 1374 1374 1373 1373 1372 1371 1371 1370 1369 1369 1368 1367
1416 1415 1414 1412 1411 1410 1409 1408 1407 1406 1404 1402 1401 1399 1397 1395 1394 1392 1390 1388 1387 1385 1383 1381 1380 1378 1377 1375 1374 1372 1371 1370 1370 1369 1369 1368 1367 1367 1366 1366 1365 1364 1364 1363
1412 1410 1409 1408 1407 1405 1404 1402 1402 1400 1399 1397 1396 1395 1393 1391 1389 1388 1387 1385 1383 1381 1379 1377 1376 1374 1373 1371 1370 1368 1367 1366 1365 1365 1364 1363 1363 1362 1362 1361 1361 1360 1360 1359
1407 1405 1404 1403 1401 1400 1399 1398 1396 1395 1394 1392 1391 1390 1389 1387 1386 1384 1382 1380 1379 1377 1375 1373 1372 1370 1369 1367 1366 1365 1363 1362 1362 1361 1360 1359 1359 1358 1358 1357 1357 1356 1356 1355
1402 1401 1399 1398 1397 1395 1394 1393 1391 1390 1389 1387 1386 1385 1384 1383 1381 1379 1378 1376 1374 1372 1371 1369 1367 1366 1365 1363 1362 1361 1360 1358 1358 1357 1356 1355 1355 1354 1353 1353 1352 1352 1351 1351
1397 1396 1394 1393 1392 1391 1390 1388 1387 1386 1384 1383 1381 1380 1379 1377 1376 1374 1373 1371 1370 1368 1366 1365 1363 1362 1360 1359 1358 1357 1356 1355 1354 1353 1352 1351 1351 1350 1350 1349 1349 1348 1348 1347